EW8749 Weather Reports


time (UTC)temp
F
wind
direction
speed
knots
gust
knots
rain 1hr
in
rain 24hr
in
rain mn
in
humidity
%
barometer
mb
20260509040014 59 280 1.7 4.3 0.00 0.00 0.00 62 1025.6
20260509034515 59 159 0.9 5.2 0.00 0.00 0.00 64 1025.6
20260509033012 59 228 0.0 5.2 0.00 0.00 0.00 66 1025.8
20260509031507 59 316 0.0 4.3 0.00 0.00 0.00 67 1025.9
20260509030014 58 265 0.0 4.3 0.00 0.01 0.00 67 1026.1
20260509024501 57 229 0.0 4.3 0.00 0.01 0.00 68 1026.3
20260509023058 57 327 1.7 5.2 0.00 0.01 0.00 68 1026.6
20260509021555 56 258 0.0 3.5 0.00 0.01 0.00 70 1026.9
20260509020055 56 263 0.0 2.6 0.00 0.01 0.00 70 1027.2
20260509014550 55 359 0.9 3.5 0.00 0.01 0.00 71 1027.3
20260509013050 54 31 0.0 0.0 0.00 0.01 0.00 74 1027.5
20260509011545 53 100 0.0 3.5 0.00 0.01 0.00 76 1027.6
20260509010040 52 116 0.9 2.6 0.00 0.01 0.00 77 1027.7
20260509004551 51 5 0.0 0.0 0.00 0.01 0.00 80 1027.7
20260509003034 49 112 0.0 0.9 0.00 0.01 0.00 84 1028.0
20260509001530 49 112 0.0 1.7 0.00 0.01 0.00 88 1028.1
20260509000039 48 94 0.9 2.6 0.00 0.01 0.00 91 1028.2
20260508234528 47 270 0.0 0.0 0.00 0.01 0.00 92 1028.2
20260508074527 48 232 1.7 8.7 0.00 0.01 0.01 82 1022.6
20260508073024 49 217 1.7 9.6 0.00 0.01 0.01 81 1022.4
20260508071525 49 267 2.6 11.3 0.00 0.01 0.01 80 1022.0
20260508070023 50 265 5.2 13.0 0.00 0.01 0.01 79 1021.8
20260508064546 51 229 3.5 10.4 0.00 0.01 0.01 78 1021.6
20260508063027 51 261 6.1 15.6 0.00 0.01 0.01 76 1021.5
20260508061521 52 236 3.5 10.4 0.00 0.01 0.01 75 1021.2
20260508060024 52 228 4.3 13.0 0.00 0.01 0.01 75 1021.1
20260508054534 52 237 4.3 12.2 0.00 0.01 0.01 74 1021.0
20260508053019 53 265 6.1 15.6 0.00 0.01 0.01 73 1020.9
20260508050025 54 267 5.2 13.0 0.00 0.01 0.01 70 1020.7
20260508044513 53 219 5.2 13.9 0.00 0.01 0.01 73 1020.7
20260508043013 53 238 5.2 12.2 0.00 0.01 0.01 75 1020.4
20260508041508 52 239 6.1 18.2 0.00 0.01 0.01 76 1020.2